Location: Moscow
(38.8570°N, 84.2291°W)
Time: 18:56:59
(UTC+00:00)

Cosmos 2082 Rocket - Pass Details

Date: 15 November 2025
Orbit: 834 x 851 km, 71.0° (Epoch: 11 December)

Event Time Altitude Azimuth Distance (km) Brightness Sun altitude
Rises 23:22:50 0° 348° (NNW) 3,388 5.3 -11.9°
Reaches altitude 10° 23:25:42 10° 1° (N) 2,450 4.5 -12.4°
Maximum altitude 23:30:20 26° 57° (ENE) 1,594 3.1 -13.3°
Enters shadow 23:33:17 17° 99° (E) 1,982 3.6 -13.8°
